Regional Weather Roundup
Issued by NWS Upton, NY

Home | Current Version | Previous Version | Text Only | Print | Product List | Glossary On
Versions: 1 2 3 4 5 6 7 8 9 10 11 12 13 14 15 16 17 18 19 20 21 22 23 24 25 26 27 28 29 30 31 32 33 34 35 36 37 38 39 40 41 42 43 44 45 46 47 48 49 50
000
ASUS41 KOKX 042108
RWROKX

REGIONAL WEATHER ROUNDUP
NATIONAL WEATHER SERVICE NEW YORK NY
500 PM EDT MON MAY 04 2015

NOTE: "FAIR" INDICATES FEW OR NO CLOUDS BELOW 12,000 FEET WITH NO
SIGNIFICANT WEATHER AND/OR OBSTRUCTIONS TO VISIBILITY.

NYZ071-072-176-178-NJZ106-104-042200-
NEW YORK CITY METRO AREA


CITY           SKY/WX    TMP DP  RH WIND       PRES   REMARKS
CENTRAL PARK   MOSUNNY   83  39  21 VRB7      30.14F
LAGUARDIA APRT MOSUNNY   80  44  27 S17       30.12F
KENNEDY INTL   MOSUNNY   72  46  40 MISG      30.16F
NEWARK/LIBERTY MOSUNNY   84  40  21 SW23G29   30.12F
BRNX BOT. GARD   N/A     79  45  29 SE17      30.14F
TETERBORO      SUNNY     85  38  18 S15G24    30.10F
$$

NYZ177-179-078>081-042200-
LONG ISLAND NEW YORK

CITY           SKY/WX    TMP DP  RH WIND       PRES   REMARKS
FARMINGDALE    SUNNY     72  45  37 SW20      30.17S
ISLIP          MOSUNNY   72  44  36 S10       30.16F
SHIRLEY        SUNNY     70  43  37 SW15      30.19F
WESTHAMPTON    SUNNY     68  43  40 SW13G20   30.20S
MONTAUK POINT    N/A     64  47  53 S10G20    30.19F
$$

NYZ052-065-067-042200-
HUDSON VALLEY

CITY           SKY/WX    TMP DP  RH WIND       PRES   REMARKS
WHITE PLAINS   MOSUNNY   78  41  26 S14G28    30.13F
NEWBURGH       MOSUNNY   82  41  23 SW14G23   30.10F
MONTGOMERY     SUNNY     84  41  21 SW18G30   30.07F
POUGHKEEPSIE   SUNNY     86  37  17 SW15G24   30.06F
ALBANY         PTSUNNY   84  37  18 SW15      30.02F
$$

NJZ001-105-106-008-010-013-015-019>022-104-042200-
NEW JERSEY

CITY           SKY/WX    TMP DP  RH WIND       PRES   REMARKS
NEWARK/LIBERTY MOSUNNY   84  40  21 SW23G29   30.12F
TETERBORO      SUNNY     85  38  18 S15G24    30.10F
CALDWELL       SUNNY     84  39  20 VRB7      30.11F
MORRISTOWN     MOSUNNY   84  39  20 SW15G24   30.12F
SOMERVILLE     MOSUNNY   84  39  20 VRB7G18   30.10F
SUSSEX         MOSUNNY   83  40  21 SW10G24   30.11F
ANDOVER          N/A     81  39  22 SW13G20   30.11F
TRENTON        SUNNY     82  41  23 SW16G23   30.14F
MILLVILLE      SUNNY     82  44  26 S9G18     30.19F
ATLANTIC CITY  SUNNY     80  42  25 S20G26    30.19F
WRIGHTSTOWN    SUNNY     83  42  23 SW15      30.13S
TOMS RIVER     SUNNY     82  43  24 S17G28    30.16F
BELMAR         MOSUNNY   82  39  21 SW13G24   30.15S
$$

PAZ047>061-062-071-042200-
EASTERN PENNSYLVANIA

CITY           SKY/WX    TMP DP  RH WIND       PRES   REMARKS
PHILADELPHIA   MOSUNNY   84  40  21 S15       30.16F
ALLENTOWN      MOSUNNY   84  43  23 SW16      30.11F
SCRANTON       SUNNY     83  39  21 SW16G28   30.10S
$$

CTZ002-004>006-009-010-012-RIZ004-006-007-MAZ004-011-015-042200-
SOUTHERN NEW ENGLAND
 IN CT

CITY           SKY/WX    TMP DP  RH WIND       PRES   REMARKS
BRADLEY INTL   MOSUNNY   84  43  23 S18G29    30.07F
HARTFORD       SUNNY     80  39  23 S17G29    30.10S
DANBURY        SUNNY     78  39  24 S17G31    30.13S
WTRBRY/OXFORD  MOSUNNY   77  43  29 SW20      30.16R
BRIDGEPORT     SUNNY     75  43  31 S18       30.14F
MERIDEN        SUNNY     80  41  24 S15G28    30.12F
NEW HAVEN      SUNNY     71  46  40 S14       30.14F
CHESTER        FAIR      75  43  31 S9G23     30.17S
GROTON         SUNNY     63  45  51 SW9       30.16F
WILLIMANTIC    SUNNY     80  40  23 SW18G30   30.12S

 IN RI

CITY           SKY/WX    TMP DP  RH WIND       PRES   REMARKS
PROVIDENCE     PTSUNNY   79  41  25 SW23G35   30.13F
BLOCK ISLAND   SUNNY     57  45  62 SW18G25   30.18F
WESTERLY       SUNNY     68  44  42 SW8G17    30.17F

 IN MA

CITY           SKY/WX    TMP DP  RH WIND       PRES   REMARKS
BOSTON         MOSUNNY   79  44  28 S20G28    30.06F
WORCESTER      SUNNY     80  38  22 SW16G28   30.10F
WESTFIELD      PTSUNNY   86  37  17 SW18G25   30.06F
PROVINCETOWN   SUNNY     63  46  55 SW18G26   30.14F
NANTUCKET      SUNNY     56  51  84 SW13      30.21S
$$

ANZ330-335-338-340-345-350-353-355-042200-
COASTAL MARINE OBSERVATIONS


STATION/POSITION TIME  SKY/WX   TEMP    WIND        PRES    VSBY  WAVE
                                AIR SEA DIR/SP/G                  HT/PER
                 (UTC)          (F)     (DEG/KT/KT) (MB)    (MI)  (FT/S)
NY HARB ENTRANCE 2050            59 53  190/ 16/ 17 1020.6          3/ 8
4S FIRE IS       2003               51                N/A           3/ 8
20S FIRE ISLAND  2050            54 49  180/ 16/ 17 1021.8          3/ 8
GREAT SOUTH BAY  2000            59 60  220/ 14/ 17   N/A
23SW MTP         2050            52 46  210/ 14/ 14 1022.2          3/ 8
HUDSON CANYON    NOT AVBL
KINGS POINT      2000            72 49  210/ 18/ 22 1020.2
EASTERN LI SOUND 2000            54     200/  8/ 10   N/A
ROBBINS REEF     2000            74     170/ 15/ 16 1019.2
$$


>>>>>>>>>>>>>>>>>>>>>>>>>>>> KEY <<<<<<<<<<<<<<<<<<<<<<<<<<<
>                                                          <
>     SKY/WX - SKY CONDITION/PRESENT WEATHER               <
>     TMP    - TEMPERATURE IN FAHRENHEIT                   <
>     DP     - DEWPOINT IN FAHRENHEIT                      <
>     RH     - RELATIVE HUMIDITY IN PERCENT                <
>     WIND   - DIRECTION AND SPEED IN MPH                  <
>     PRES   - MEAN SEA LEVEL PRESSURE IN INCHES OF HG     <
>     WCI    - WIND CHILL INDEX                            <
>     VSB    - VISIBILITY IN MILES                         <
>     HX     - HEAT INDEX                                  <
>     TC     - TEMPERATURE IN CELSIUS                      <
>     VRB    - VARIABLE WIND DIRECTION                     <
>                                                          <
>>>>>>>>>>>>>>>>>>>>>>>>>>>> KEY <<<<<<<<<<<<<<<<<<<<<<<<<<<





USA.gov is the U.S. government's official web portal to all federal, state and local government web resources and services.